Terug naar catalogus

STARLINK-30485

ActiefCommunicatieVLEO
NORAD 57920·PAYLOAD·🇺🇸 United States

Gelanceerd Sep 24, 2023 vanaf Cape Canaveral Space Force Station

Loading…

Volgende Passages (komende 24 uur)

TLE

VersSource: CelesTrak SupGP

Epoch: Sep 14, 2026, 22:11 UTC

1 57920C 23147H   26257.92479167 -.00103490  00000+0 -37477-2 0  2572
2 57920  43.0024 336.5666 0001797 265.5485 266.4163 15.27636293    15

Volg STARLINK-30485 in realtime met AllMySat

Download on the App Store